Stations météo

Publicité
Hurguada, Egypte (62463): Température de l'air & dewpoint: 07.12.2018 12:00:00 - 13.12.2018 12:00:00 (EET)Hurguada, Egypte (62463): Vitesse du vent: 07.12.2018 12:00:00 - 13.12.2018 12:00:00 (EET)Hurguada, Egypte (62463): Direction du vent: 07.12.2018 12:00:00 - 13.12.2018 12:00:00 (EET)Hurguada, Egypte (62463): reduced air pressure: 07.12.2018 12:00:00 - 13.12.2018 12:00:00 (EET)Hurguada, Egypte (62463): visibility: 07.12.2018 12:00:00 - 13.12.2018 12:00:00 (EET)
Date & Time tt [°C] td [°C] ff [km/h] ff [knt] dd ppp [hPa] vv [km]
13.12.2018 12:00:00 - - - - - - -
13.12.2018 11:00:00 21,8 9,7 21 11 N 1022,7 10
13.12.2018 10:00:00 - - - - - - -
13.12.2018 09:00:00 - - - - - - -
13.12.2018 08:00:00 17,2 8,9 15 8 WNW 1022,5 10
13.12.2018 07:00:00 - - - - - - -
13.12.2018 06:00:00 - - - - - - -
13.12.2018 05:00:00 16,2 6,6 21 11 WNW 1021,2 10
13.12.2018 04:00:00 - - - - - - -
13.12.2018 03:00:00 - - - - - - -
13.12.2018 02:00:00 15,7 6,4 11 6 WNW 1021,1 10
13.12.2018 01:00:00 - - - - - - -
13.12.2018 00:00:00 - - - - - - -
12.12.2018 23:00:00 16,9 7,0 16 9 WNW 1021,3 10
12.12.2018 22:00:00 - - - - - - -
12.12.2018 21:00:00 - - - - - - -
12.12.2018 20:00:00 19,0 6,1 16 9 WNW 1020,9 10
12.12.2018 19:00:00 - - - - - - -
12.12.2018 18:00:00 - - - - - - -
12.12.2018 17:00:00 21,4 9,3 24 13 N 1019,1 10
12.12.2018 16:00:00 - - - - - - -
12.12.2018 15:00:00 - - - - - - -
12.12.2018 14:00:00 - - - - - - -
12.12.2018 13:00:00 - - - - - - -
12.12.2018 12:00:00 - - - - - - -
12.12.2018 11:00:00 22,4 8,1 22 12 N 1020,9 10
12.12.2018 10:00:00 - - - - - - -
12.12.2018 09:00:00 - - - - - - -
12.12.2018 08:00:00 16,9 6,1 15 8 WNW 1021,2 10
12.12.2018 07:00:00 - - - - - - -
12.12.2018 06:00:00 - - - - - - -
12.12.2018 05:00:00 14,0 5,9 18 10 NW 1019,7 10
12.12.2018 04:00:00 - - - - - - -
12.12.2018 03:00:00 - - - - - - -
12.12.2018 02:00:00 14,5 6,1 13 7 WNW 1019,9 10
12.12.2018 01:00:00 - - - - - - -
12.12.2018 00:00:00 - - - - - - -
11.12.2018 23:00:00 16,4 7,1 15 8 WNW 1020,3 10
11.12.2018 22:00:00 - - - - - - -
11.12.2018 21:00:00 - - - - - - -
11.12.2018 20:00:00 17,0 8,2 11 6 W 1020,0 10
11.12.2018 19:00:00 - - - - - - -
11.12.2018 18:00:00 - - - - - - -
11.12.2018 17:00:00 21,4 9,0 15 8 N 1018,6 10
11.12.2018 16:00:00 - - - - - - -
11.12.2018 15:00:00 - - - - - - -
11.12.2018 14:00:00 23,6 7,2 16 9 NNE 1018,6 10
11.12.2018 13:00:00 - - - - - - -
11.12.2018 12:00:00 - - - - - - -
11.12.2018 11:00:00 22,3 5,2 21 11 NW 1020,7 10
11.12.2018 10:00:00 - - - - - - -
11.12.2018 09:00:00 - - - - - - -
11.12.2018 08:00:00 17,4 5,7 13 7 WNW 1020,6 10
11.12.2018 07:00:00 - - - - - - -
11.12.2018 06:00:00 - - - - - - -
11.12.2018 05:00:00 - - - - - - -
11.12.2018 04:00:00 - - - - - - -
11.12.2018 03:00:00 - - - - - - -
11.12.2018 02:00:00 - - - - - - -
11.12.2018 01:00:00 - - - - - - -
11.12.2018 00:00:00 - - - - - - -
10.12.2018 23:00:00 16,4 7,6 13 7 WNW 1020,1 10
10.12.2018 22:00:00 - - - - - - -
10.12.2018 21:00:00 - - - - - - -
10.12.2018 20:00:00 18,3 5,8 15 8 NW 1019,4 10
10.12.2018 19:00:00 - - - - - - -
10.12.2018 18:00:00 - - - - - - -
10.12.2018 17:00:00 21,7 7,1 24 13 N 1017,6 10
10.12.2018 16:00:00 - - - - - - -
10.12.2018 15:00:00 - - - - - - -
10.12.2018 14:00:00 23,8 6,1 35 19 N 1017,1 10
10.12.2018 13:00:00 - - - - - - -
10.12.2018 12:00:00 - - - - - - -
10.12.2018 11:00:00 21,6 5,5 26 14 NNW 1019,6 10
10.12.2018 10:00:00 - - - - - - -
10.12.2018 09:00:00 - - - - - - -
10.12.2018 08:00:00 15,5 5,1 22 12 WNW 1019,5 10
10.12.2018 07:00:00 - - - - - - -
10.12.2018 06:00:00 - - - - - - -
10.12.2018 05:00:00 14,1 4,7 28 15 NW 1018,7 10
10.12.2018 04:00:00 - - - - - - -
10.12.2018 03:00:00 - - - - - - -
10.12.2018 02:00:00 14,2 5,0 13 7 WNW 1018,6 10
10.12.2018 01:00:00 - - - - - - -
10.12.2018 00:00:00 - - - - - - -
09.12.2018 23:00:00 16,2 6,9 21 11 WNW 1019,2 10
09.12.2018 22:00:00 - - - - - - -
09.12.2018 21:00:00 - - - - - - -
09.12.2018 20:00:00 17,6 7,3 18 10 NW 1018,5 10
09.12.2018 19:00:00 - - - - - - -
09.12.2018 18:00:00 - - - - - - -
09.12.2018 17:00:00 20,8 8,8 22 12 N 1016,7 10
09.12.2018 16:00:00 - - - - - - -
09.12.2018 15:00:00 - - - - - - -
09.12.2018 14:00:00 22,6 7,1 21 11 N 1017,2 10
09.12.2018 13:00:00 - - - - - - -
09.12.2018 12:00:00 - - - - - - -
09.12.2018 11:00:00 20,6 7,5 21 11 NNW 1020,0 10
09.12.2018 10:00:00 - - - - - - -
09.12.2018 09:00:00 - - - - - - -
09.12.2018 08:00:00 16,4 5,8 18 10 NW 1019,5 10
09.12.2018 07:00:00 - - - - - - -
09.12.2018 06:00:00 - - - - - - -
09.12.2018 05:00:00 14,9 5,7 15 8 WNW 1018,4 10
09.12.2018 04:00:00 - - - - - - -
09.12.2018 03:00:00 - - - - - - -
09.12.2018 02:00:00 16,0 5,6 13 7 WNW 1018,2 10
09.12.2018 01:00:00 - - - - - - -
09.12.2018 00:00:00 - - - - - - -
08.12.2018 23:00:00 16,9 3,6 13 7 WNW 1018,7 10
08.12.2018 22:00:00 - - - - - - -
08.12.2018 21:00:00 - - - - - - -
08.12.2018 20:00:00 16,9 3,2 15 8 WNW 1019,3 10
08.12.2018 19:00:00 - - - - - - -
08.12.2018 18:00:00 - - - - - - -
08.12.2018 17:00:00 20,8 6,9 22 12 N 1017,2 10
08.12.2018 16:00:00 - - - - - - -
08.12.2018 15:00:00 - - - - - - -
08.12.2018 14:00:00 22,2 4,7 11 6 N 1016,8 10
08.12.2018 13:00:00 - - - - - - -
08.12.2018 12:00:00 - - - - - - -
08.12.2018 11:00:00 20,5 5,3 18 10 NNW 1018,3 10
08.12.2018 10:00:00 - - - - - - -
08.12.2018 09:00:00 - - - - - - -
08.12.2018 08:00:00 14,8 1,8 18 10 WNW 1018,2 10
08.12.2018 07:00:00 - - - - - - -
08.12.2018 06:00:00 - - - - - - -
08.12.2018 05:00:00 12,8 2,3 15 8 NW 1017,1 10
08.12.2018 04:00:00 - - - - - - -
08.12.2018 03:00:00 - - - - - - -
08.12.2018 02:00:00 14,7 3,2 16 9 WNW 1017,2 10
08.12.2018 01:00:00 - - - - - - -
08.12.2018 00:00:00 - - - - - - -
07.12.2018 23:00:00 15,7 4,7 15 8 NW 1017,5 10
07.12.2018 22:00:00 - - - - - - -
07.12.2018 21:00:00 - - - - - - -
07.12.2018 20:00:00 18,5 5,3 18 10 NNW 1016,4 10
07.12.2018 19:00:00 - - - - - - -
07.12.2018 18:00:00 - - - - - - -
07.12.2018 17:00:00 21,8 2,2 28 15 NNW 1014,7 10
07.12.2018 16:00:00 - - - - - - -
07.12.2018 15:00:00 - - - - - - -
07.12.2018 14:00:00 23,4 0,5 28 15 NW 1014,4 10
07.12.2018 13:00:00 - - - - - - -
07.12.2018 12:00:00 - - - - - - -

tt = Température de l'air
td = dewpoint
ff = Vitesse du vent
dd = Direction du vent
ppp = reduced air pressure
vv = visibility

stations d'obs. à proximité